Time,TemperatureF,DewpointF,PressureIn,WindDirection,WindDirectionDegrees,WindSpeedMPH,WindSpeedGustMPH,Humidity,HourlyPrecipIn,Conditions,Clouds,dailyrainin,SoftwareType,DateUTC
2013-03-21 00:02:00,23.8,11.9,29.64,NW,320,0.0,0.0,60,0.00,,,0.00,Wunderground v.1.15,2013-03-21 05:02:00,
2013-03-21 00:08:00,23.6,11.7,29.65,NW,320,0.0,2.0,60,0.00,,,0.00,Wunderground v.1.15,2013-03-21 05:08:00,
2013-03-21 00:14:00,23.5,12.0,29.64,NW,321,0.0,4.0,61,0.00,,,0.00,Wunderground v.1.15,2013-03-21 05:14:00,
2013-03-21 00:19:00,23.4,11.9,29.64,NW,318,0.0,4.0,61,0.00,,,0.00,Wunderground v.1.15,2013-03-21 05:19:00,
2013-03-21 00:25:00,23.3,11.8,29.64,NW,318,0.0,1.0,61,0.00,,,0.00,Wunderground v.1.15,2013-03-21 05:25:00,
2013-03-21 00:30:00,23.8,12.3,29.64,NW,318,0.0,0.0,61,0.00,,,0.00,Wunderground v.1.15,2013-03-21 05:30:00,
2013-03-21 00:37:00,23.0,11.9,29.64,NW,318,0.0,1.0,62,0.00,,,0.00,Wunderground v.1.15,2013-03-21 05:37:00,
2013-03-21 00:43:00,23.0,11.9,29.64,NW,318,0.0,0.0,62,0.00,,,0.00,Wunderground v.1.15,2013-03-21 05:43:00,
2013-03-21 00:49:00,22.7,11.6,29.64,NW,318,0.0,0.0,62,0.00,,,0.00,Wunderground v.1.15,2013-03-21 05:49:00,
2013-03-21 00:54:00,22.6,11.9,29.64,NW,318,0.0,1.0,63,0.00,,,0.00,Wunderground v.1.15,2013-03-21 05:54:00,
2013-03-21 01:00:00,22.3,11.6,29.64,NW,317,0.0,0.0,63,0.00,,,0.00,Wunderground v.1.15,2013-03-21 06:00:00,
2013-03-21 01:07:00,22.1,11.8,29.64,NW,317,0.0,2.0,64,0.00,,,0.00,Wunderground v.1.15,2013-03-21 06:07:00,
2013-03-21 01:12:00,21.9,11.6,29.64,NW,317,0.0,0.0,64,0.00,,,0.00,Wunderground v.1.15,2013-03-21 06:12:00,
2013-03-21 01:17:00,21.7,11.4,29.64,NW,317,0.0,0.0,64,0.00,,,0.00,Wunderground v.1.15,2013-03-21 06:17:00,
2013-03-21 01:23:00,21.5,11.5,29.64,NW,317,0.0,0.0,65,0.00,,,0.00,Wunderground v.1.15,2013-03-21 06:23:00,
2013-03-21 01:28:00,21.2,11.6,29.64,NW,317,0.0,0.0,66,0.00,,,0.00,Wunderground v.1.15,2013-03-21 06:28:00,
2013-03-21 01:34:00,21.3,11.7,29.64,NW,317,0.0,1.0,66,0.00,,,0.00,Wunderground v.1.15,2013-03-21 06:34:00,
2013-03-21 01:39:00,21.3,-99.9,29.64,NW,317,0.0,1.0,255,0.00,,,0.00,Wunderground v.1.15,2013-03-21 06:39:00,
2013-03-21 01:45:00,20.6,11.7,29.64,NW,317,0.0,0.0,68,0.00,,,0.00,Wunderground v.1.15,2013-03-21 06:45:00,
2013-03-21 01:50:00,20.3,11.7,29.64,NW,317,0.0,0.0,69,0.00,,,0.00,Wunderground v.1.15,2013-03-21 06:50:00,
2013-03-21 01:57:00,20.0,11.8,29.64,NW,317,0.0,0.0,70,0.00,,,0.00,Wunderground v.1.15,2013-03-21 06:57:00,
2013-03-21 02:02:00,19.8,11.6,29.63,NW,317,0.0,0.0,70,0.00,,,0.00,Wunderground v.1.15,2013-03-21 07:02:00,
2013-03-21 02:07:00,19.7,11.5,29.63,NW,309,0.0,6.0,70,0.00,,,0.00,Wunderground v.1.15,2013-03-21 07:07:00,
2013-03-21 02:12:00,19.8,11.6,29.63,NW,308,0.0,6.0,70,0.00,,,0.00,Wunderground v.1.15,2013-03-21 07:12:00,
2013-03-21 02:17:00,20.1,11.6,29.63,NW,308,0.0,6.0,69,0.00,,,0.00,Wunderground v.1.15,2013-03-21 07:17:00,
2013-03-21 02:22:00,20.3,11.7,29.63,NW,308,0.0,1.0,69,0.00,,,0.00,Wunderground v.1.15,2013-03-21 07:22:00,
2013-03-21 02:27:00,20.3,11.7,29.63,NW,308,4.0,4.0,69,0.00,,,0.00,Wunderground v.1.15,2013-03-21 07:27:00,
2013-03-21 02:32:00,20.4,11.5,29.63,NW,308,0.0,0.0,68,0.00,,,0.00,Wunderground v.1.15,2013-03-21 07:32:00,
2013-03-21 02:37:00,20.4,11.5,29.62,NW,308,4.0,4.0,68,0.00,,,0.00,Wunderground v.1.15,2013-03-21 07:37:00,
2013-03-21 02:42:00,20.6,11.7,29.62,NW,308,0.0,5.0,68,0.00,,,0.00,Wunderground v.1.15,2013-03-21 07:42:00,
2013-03-21 02:47:00,20.8,11.6,29.62,NW,308,0.0,5.0,67,0.00,,,0.00,Wunderground v.1.15,2013-03-21 07:47:00,
2013-03-21 02:52:00,20.9,11.7,29.62,NW,309,0.0,1.0,67,0.00,,,0.00,Wunderground v.1.15,2013-03-21 07:52:00,
2013-03-21 02:57:00,20.9,11.7,29.62,NW,311,2.0,6.0,67,0.00,,,0.00,Wunderground v.1.15,2013-03-21 07:57:00,
2013-03-21 03:02:00,21.0,11.8,29.62,NW,311,0.0,4.0,67,0.00,,,0.00,Wunderground v.1.15,2013-03-21 08:02:00,
2013-03-21 03:08:00,21.0,11.8,29.62,NW,311,0.0,4.0,67,0.00,,,0.00,Wunderground v.1.15,2013-03-21 08:08:00,
2013-03-21 03:13:00,20.9,11.7,29.62,NW,311,0.0,0.0,67,0.00,,,0.00,Wunderground v.1.15,2013-03-21 08:13:00,
2013-03-21 03:18:00,20.9,12.0,29.62,NW,311,0.0,5.0,68,0.00,,,0.00,Wunderground v.1.15,2013-03-21 08:18:00,
2013-03-21 03:23:00,20.8,11.9,29.62,NW,311,1.0,4.0,68,0.00,,,0.00,Wunderground v.1.15,2013-03-21 08:23:00,
2013-03-21 03:28:00,20.8,11.9,29.62,NW,311,0.0,4.0,68,0.00,,,0.00,Wunderground v.1.15,2013-03-21 08:28:00,
2013-03-21 03:33:00,20.7,11.8,29.62,NW,311,0.0,2.0,68,0.00,,,0.00,Wunderground v.1.15,2013-03-21 08:33:00,
2013-03-21 03:38:00,20.6,11.7,29.62,NW,311,0.0,2.0,68,0.00,,,0.00,Wunderground v.1.15,2013-03-21 08:38:00,
2013-03-21 03:43:00,20.5,11.9,29.62,NW,311,1.0,2.0,69,0.00,,,0.00,Wunderground v.1.15,2013-03-21 08:43:00,
2013-03-21 03:48:00,20.5,11.9,29.61,NW,311,0.0,4.0,69,0.00,,,0.00,Wunderground v.1.15,2013-03-21 08:48:00,
2013-03-21 03:53:00,20.5,11.9,29.61,NW,311,0.0,0.0,69,0.00,,,0.00,Wunderground v.1.15,2013-03-21 08:53:00,
2013-03-21 03:58:00,20.3,11.7,29.61,NW,311,0.0,2.0,69,0.00,,,0.00,Wunderground v.1.15,2013-03-21 08:58:00,
2013-03-21 04:03:00,20.3,12.1,29.61,NW,311,0.0,1.0,70,0.00,,,0.00,Wunderground v.1.15,2013-03-21 09:03:00,
2013-03-21 04:08:00,20.2,12.0,29.61,NW,311,0.0,1.0,70,0.00,,,0.00,Wunderground v.1.15,2013-03-21 09:08:00,
2013-03-21 04:13:00,20.1,11.9,29.60,NW,311,0.0,0.0,70,0.00,,,0.00,Wunderground v.1.15,2013-03-21 09:13:00,
2013-03-21 04:18:00,19.9,12.0,29.60,NW,311,0.0,2.0,71,0.00,,,0.00,Wunderground v.1.15,2013-03-21 09:18:00,
2013-03-21 04:23:00,19.8,12.2,29.60,NW,311,0.0,1.0,72,0.00,,,0.00,Wunderground v.1.15,2013-03-21 09:23:00,
2013-03-21 04:28:00,19.7,12.1,29.60,NW,311,0.0,2.0,72,0.00,,,0.00,Wunderground v.1.15,2013-03-21 09:28:00,
2013-03-21 04:33:00,19.7,12.1,29.61,NNW,334,1.0,6.0,72,0.00,,,0.00,Wunderground v.1.15,2013-03-21 09:33:00,
2013-03-21 04:38:00,19.8,11.9,29.61,NNW,334,1.0,6.0,71,0.00,,,0.00,Wunderground v.1.15,2013-03-21 09:38:00,
2013-03-21 04:43:00,19.7,12.1,29.60,NNW,334,4.0,5.0,72,0.00,,,0.00,Wunderground v.1.15,2013-03-21 09:43:00,
2013-03-21 04:48:00,19.7,11.8,29.60,NNW,334,2.0,5.0,71,0.00,,,0.00,Wunderground v.1.15,2013-03-21 09:48:00,
2013-03-21 04:53:00,19.7,11.8,29.60,NNW,336,0.0,6.0,71,0.00,,,0.00,Wunderground v.1.15,2013-03-21 09:53:00,
2013-03-21 04:58:00,19.7,11.8,29.60,NNW,336,0.0,6.0,71,0.00,,,0.00,Wunderground v.1.15,2013-03-21 09:58:00,
2013-03-21 05:03:00,19.6,11.7,29.61,NNW,336,0.0,5.0,71,0.00,,,0.00,Wunderground v.1.15,2013-03-21 10:03:00,
2013-03-21 05:08:00,19.5,11.3,29.61,NNW,336,0.0,5.0,70,0.00,,,0.00,Wunderground v.1.15,2013-03-21 10:08:00,
2013-03-21 05:13:00,19.4,11.2,29.61,NNW,336,0.0,5.0,70,0.00,,,0.00,Wunderground v.1.15,2013-03-21 10:13:00,
2013-03-21 05:18:00,19.4,10.9,29.61,NNW,337,0.0,5.0,69,0.00,,,0.00,Wunderground v.1.15,2013-03-21 10:18:00,
2013-03-21 05:23:00,19.3,10.5,29.61,NNW,337,0.0,4.0,68,0.00,,,0.00,Wunderground v.1.15,2013-03-21 10:23:00,
2013-03-21 05:28:00,19.3,10.5,29.61,NNW,337,0.0,5.0,68,0.00,,,0.00,Wunderground v.1.15,2013-03-21 10:28:00,
2013-03-21 05:33:00,19.2,10.4,29.61,NNW,337,0.0,2.0,68,0.00,,,0.00,Wunderground v.1.15,2013-03-21 10:33:00,
2013-03-21 05:38:00,19.4,9.9,29.61,NNW,337,0.0,2.0,66,0.00,,,0.00,Wunderground v.1.15,2013-03-21 10:38:00,
2013-03-21 05:43:00,19.1,10.3,29.61,NNW,333,0.0,4.0,68,0.00,,,0.00,Wunderground v.1.15,2013-03-21 10:43:00,
2013-03-21 05:48:00,19.0,10.5,29.62,NNW,337,0.0,4.0,69,0.00,,,0.00,Wunderground v.1.15,2013-03-21 10:48:00,
2013-03-21 05:53:00,19.0,10.2,29.61,NNW,337,0.0,4.0,68,0.00,,,0.00,Wunderground v.1.15,2013-03-21 10:53:00,
2013-03-21 05:58:00,18.9,10.4,29.62,NNW,340,1.0,8.0,69,0.00,,,0.00,Wunderground v.1.15,2013-03-21 10:58:00,
2013-03-21 06:03:00,18.6,10.4,29.62,NNW,340,0.0,5.0,70,0.00,,,0.00,Wunderground v.1.15,2013-03-21 11:03:00,
2013-03-21 06:08:00,18.6,10.4,29.62,NNW,340,0.0,5.0,70,0.00,,,0.00,Wunderground v.1.15,2013-03-21 11:08:00,
2013-03-21 06:13:00,18.5,10.3,29.62,NNW,344,0.0,6.0,70,0.00,,,0.00,Wunderground v.1.15,2013-03-21 11:13:00,
2013-03-21 06:18:00,18.4,10.2,29.62,NNW,344,0.0,6.0,70,0.00,,,0.00,Wunderground v.1.15,2013-03-21 11:18:00,
2013-03-21 06:23:00,18.4,10.2,29.63,NNW,344,0.0,1.0,70,0.00,,,0.00,Wunderground v.1.15,2013-03-21 11:23:00,
2013-03-21 06:28:00,18.3,10.1,29.63,NNW,344,0.0,1.0,70,0.00,,,0.00,Wunderground v.1.15,2013-03-21 11:28:00,
2013-03-21 06:33:00,18.2,10.1,29.63,NNW,344,0.0,0.0,70,0.00,,,0.00,Wunderground v.1.15,2013-03-21 11:33:00,
2013-03-21 06:38:00,18.2,10.1,29.63,NNW,344,0.0,4.0,70,0.00,,,0.00,Wunderground v.1.15,2013-03-21 11:38:00,
2013-03-21 06:43:00,18.2,10.1,29.63,NNW,344,0.0,2.0,70,0.00,,,0.00,Wunderground v.1.15,2013-03-21 11:43:00,
2013-03-21 06:48:00,18.2,10.1,29.63,NNW,344,0.0,2.0,70,0.00,,,0.00,Wunderground v.1.15,2013-03-21 11:48:00,
2013-03-21 06:53:00,18.1,10.0,29.63,NNW,344,0.0,0.0,70,0.00,,,0.00,Wunderground v.1.15,2013-03-21 11:53:00,
2013-03-21 06:58:00,18.0,10.2,29.63,NNW,344,0.0,0.0,71,0.00,,,0.00,Wunderground v.1.15,2013-03-21 11:58:00,
2013-03-21 07:03:00,17.9,10.1,29.63,NNW,344,0.0,0.0,71,0.00,,,0.00,Wunderground v.1.15,2013-03-21 12:03:00,
2013-03-21 07:08:00,-37.0,-42.9,29.63,NNW,344,0.0,0.0,71,0.00,,,0.00,Wunderground v.1.15,2013-03-21 12:08:00,
2013-03-21 07:14:00,17.9,9.8,29.63,NNW,344,0.0,0.0,70,0.00,,,0.00,Wunderground v.1.15,2013-03-21 12:14:00,
2013-03-21 07:19:00,17.6,10.1,29.63,NNW,344,0.0,0.0,72,0.00,,,0.00,Wunderground v.1.15,2013-03-21 12:19:00,
2013-03-21 07:24:00,17.5,10.0,29.63,NNW,344,0.0,0.0,72,0.00,,,0.00,Wunderground v.1.15,2013-03-21 12:24:00,
2013-03-21 07:29:00,17.4,10.2,29.63,NNW,344,0.0,0.0,73,0.00,,,0.00,Wunderground v.1.15,2013-03-21 12:29:00,
2013-03-21 07:34:00,17.3,10.1,29.63,NNW,344,0.0,0.0,73,0.00,,,0.00,Wunderground v.1.15,2013-03-21 12:34:00,
2013-03-21 07:39:00,17.3,10.4,29.63,NNW,344,0.0,0.0,74,0.00,,,0.00,Wunderground v.1.15,2013-03-21 12:39:00,
2013-03-21 07:44:00,17.4,10.5,29.63,NNW,344,0.0,0.0,74,0.00,,,0.00,Wunderground v.1.15,2013-03-21 12:44:00,
2013-03-21 07:49:00,17.6,10.7,29.63,NNW,344,0.0,0.0,74,0.00,,,0.00,Wunderground v.1.15,2013-03-21 12:49:00,
2013-03-21 07:54:00,17.7,11.1,29.64,NNW,344,0.0,0.0,75,0.00,,,0.00,Wunderground v.1.15,2013-03-21 12:54:00,
2013-03-21 07:59:00,18.1,10.9,29.64,NNW,344,0.0,0.0,73,0.00,,,0.00,Wunderground v.1.15,2013-03-21 12:59:00,
2013-03-21 08:04:00,18.4,11.5,29.64,NNW,344,0.0,1.0,74,0.00,,,0.00,Wunderground v.1.15,2013-03-21 13:04:00,
2013-03-21 08:09:00,18.8,11.3,29.64,NNW,343,0.0,5.0,72,0.00,,,0.00,Wunderground v.1.15,2013-03-21 13:09:00,
2013-03-21 08:14:00,19.2,11.3,29.64,NNW,344,0.0,4.0,71,0.00,,,0.00,Wunderground v.1.15,2013-03-21 13:14:00,
2013-03-21 08:19:00,19.8,11.6,29.64,NNW,344,0.0,4.0,70,0.00,,,0.00,Wunderground v.1.15,2013-03-21 13:19:00,
2013-03-21 08:24:00,20.1,10.9,29.64,NNW,344,0.0,5.0,67,0.00,,,0.00,Wunderground v.1.15,2013-03-21 13:24:00,
2013-03-21 08:29:00,20.5,10.9,29.64,NNW,344,1.0,5.0,66,0.00,,,0.00,Wunderground v.1.15,2013-03-21 13:29:00,
2013-03-21 08:34:00,20.6,11.0,29.64,NNW,343,0.0,6.0,66,0.00,,,0.00,Wunderground v.1.15,2013-03-21 13:34:00,
2013-03-21 08:39:00,20.5,10.9,29.64,NNW,343,0.0,6.0,66,0.00,,,0.00,Wunderground v.1.15,2013-03-21 13:39:00,
2013-03-21 08:44:00,20.7,11.5,29.64,NNW,343,4.0,5.0,67,0.00,,,0.00,Wunderground v.1.15,2013-03-21 13:44:00,
2013-03-21 08:49:00,21.0,11.1,29.64,NNW,346,0.0,5.0,65,0.00,,,0.00,Wunderground v.1.15,2013-03-21 13:49:00,
2013-03-21 08:54:00,21.3,11.0,29.64,NNW,346,0.0,1.0,64,0.00,,,0.00,Wunderground v.1.15,2013-03-21 13:54:00,
2013-03-21 08:59:00,21.6,10.9,29.64,NNW,346,0.0,1.0,63,0.00,,,0.00,Wunderground v.1.15,2013-03-21 13:59:00,
2013-03-21 09:04:00,21.8,10.8,29.64,NNW,346,0.0,1.0,62,0.00,,,0.00,Wunderground v.1.15,2013-03-21 14:04:00,
2013-03-21 09:09:00,21.9,10.5,29.64,NNW,346,0.0,5.0,61,0.00,,,0.00,Wunderground v.1.15,2013-03-21 14:09:00,
2013-03-21 09:14:00,22.0,11.0,29.64,NNW,346,0.0,4.0,62,0.00,,,0.00,Wunderground v.1.15,2013-03-21 14:14:00,
2013-03-21 09:19:00,22.3,11.2,29.64,NNW,346,0.0,4.0,62,0.00,,,0.00,Wunderground v.1.15,2013-03-21 14:19:00,
2013-03-21 09:24:00,22.7,11.3,29.64,NNW,346,4.0,7.0,61,0.00,,,0.00,Wunderground v.1.15,2013-03-21 14:24:00,
2013-03-21 09:29:00,22.9,10.7,29.64,NNW,345,0.0,7.0,59,0.00,,,0.00,Wunderground v.1.15,2013-03-21 14:29:00,
2013-03-21 09:34:00,23.0,11.2,29.64,NNW,345,0.0,2.0,60,0.00,,,0.00,Wunderground v.1.15,2013-03-21 14:34:00,
2013-03-21 09:39:00,23.3,11.1,29.65,NNW,345,0.0,2.0,59,0.00,,,0.00,Wunderground v.1.15,2013-03-21 14:39:00,
2013-03-21 09:44:00,23.4,11.2,29.64,NNW,340,0.0,4.0,59,0.00,,,0.00,Wunderground v.1.15,2013-03-21 14:44:00,
2013-03-21 09:49:00,23.5,10.5,29.64,NNW,337,1.0,6.0,57,0.00,,,0.00,Wunderground v.1.15,2013-03-21 14:49:00,
2013-03-21 09:54:00,23.5,12.0,29.65,NW,325,0.0,7.0,61,0.00,,,0.00,Wunderground v.1.15,2013-03-21 14:54:00,
2013-03-21 09:59:00,23.7,11.1,29.64,NW,326,0.0,7.0,58,0.00,,,0.00,Wunderground v.1.15,2013-03-21 14:59:00,
2013-03-21 10:04:00,23.5,10.9,29.64,NW,325,0.0,5.0,58,0.00,,,0.00,Wunderground v.1.15,2013-03-21 15:04:00,
2013-03-21 10:09:00,23.9,11.3,29.64,NW,325,0.0,5.0,58,0.00,,,0.00,Wunderground v.1.15,2013-03-21 15:09:00,
2013-03-21 10:14:00,24.3,11.2,29.64,NNW,327,0.0,4.0,57,0.00,,,0.00,Wunderground v.1.15,2013-03-21 15:14:00,
2013-03-21 10:19:00,24.6,11.1,29.64,NW,325,0.0,4.0,56,0.00,,,0.00,Wunderground v.1.15,2013-03-21 15:19:00,
2013-03-21 10:24:00,25.4,-99.9,29.64,NW,325,2.0,2.0,255,0.00,,,0.00,Wunderground v.1.15,2013-03-21 15:24:00,
2013-03-21 10:29:00,25.3,11.0,29.64,NNW,327,2.0,5.0,54,0.00,,,0.00,Wunderground v.1.15,2013-03-21 15:29:00,
2013-03-21 10:35:00,25.0,11.5,29.64,North,360,4.0,5.0,56,0.00,,,0.00,Wunderground v.1.15,2013-03-21 15:35:00,
2013-03-21 10:40:00,26.7,-99.9,29.63,North,360,0.0,5.0,255,0.00,,,0.00,Wunderground v.1.15,2013-03-21 15:40:00,
2013-03-21 10:45:00,25.8,11.8,29.64,NNE,16,1.0,7.0,55,0.00,,,0.00,Wunderground v.1.15,2013-03-21 15:45:00,
2013-03-21 10:50:00,26.0,11.6,29.63,ENE,57,0.0,7.0,54,0.00,,,0.00,Wunderground v.1.15,2013-03-21 15:50:00,
2013-03-21 10:55:00,26.0,11.6,29.63,NNE,32,0.0,7.0,54,0.00,,,0.00,Wunderground v.1.15,2013-03-21 15:55:00,
2013-03-21 11:00:00,26.1,11.3,29.63,NNE,32,0.0,1.0,53,0.00,,,0.00,Wunderground v.1.15,2013-03-21 16:00:00,
2013-03-21 11:05:00,26.0,11.6,29.63,North,9,3.0,9.0,54,0.00,,,0.00,Wunderground v.1.15,2013-03-21 16:05:00,
2013-03-21 11:10:00,-999.9,-99.9,29.63,NNW,338,4.0,4.0,53,0.00,,,0.00,Wunderground v.1.15,2013-03-21 16:10:00,
2013-03-21 11:15:00,25.8,11.4,29.63,NNE,18,3.0,6.0,54,0.00,,,0.00,Wunderground v.1.15,2013-03-21 16:15:00,
2013-03-21 11:20:00,26.0,11.2,29.64,NNE,31,3.0,3.0,53,0.00,,,0.00,Wunderground v.1.15,2013-03-21 16:20:00,
2013-03-21 11:25:00,26.1,11.3,29.64,ENE,77,0.0,5.0,53,0.00,,,0.00,Wunderground v.1.15,2013-03-21 16:25:00,
2013-03-21 11:30:00,26.1,11.3,29.63,ENE,72,0.0,5.0,53,0.00,,,0.00,Wunderground v.1.15,2013-03-21 16:30:00,
2013-03-21 11:35:00,26.7,11.8,29.63,North,10,3.0,6.0,53,0.00,,,0.00,Wunderground v.1.15,2013-03-21 16:35:00,
2013-03-21 11:40:00,26.9,12.5,29.63,NNE,24,0.0,6.0,54,0.00,,,0.00,Wunderground v.1.15,2013-03-21 16:40:00,
2013-03-21 11:45:00,27.1,11.3,29.62,NNE,24,0.0,2.0,51,0.00,,,0.00,Wunderground v.1.15,2013-03-21 16:45:00,
2013-03-21 11:50:00,27.4,-99.9,29.62,NNE,23,0.0,1.0,255,0.00,,,0.00,Wunderground v.1.15,2013-03-21 16:50:00,
2013-03-21 11:55:00,27.3,11.5,29.62,NNE,26,1.0,4.0,51,0.00,,,0.00,Wunderground v.1.15,2013-03-21 16:55:00,
2013-03-21 12:00:00,28.1,11.8,29.62,East,86,1.0,1.0,50,0.00,,,0.00,Wunderground v.1.15,2013-03-21 17:00:00,
2013-03-21 12:05:00,28.0,11.3,29.61,SSE,164,0.0,5.0,49,0.00,,,0.00,Wunderground v.1.15,2013-03-21 17:05:00,
2013-03-21 12:10:00,28.3,12.0,29.61,SSE,167,2.0,4.0,50,0.00,,,0.00,Wunderground v.1.15,2013-03-21 17:10:00,
2013-03-21 12:15:00,28.7,11.9,29.61,SE,130,4.0,7.0,49,0.00,,,0.00,Wunderground v.1.15,2013-03-21 17:15:00,
2013-03-21 12:20:00,29.0,11.7,29.61,SE,128,2.0,3.0,48,0.00,,,0.00,Wunderground v.1.15,2013-03-21 17:20:00,
2013-03-21 12:25:00,29.7,12.4,29.61,ESE,123,0.0,5.0,48,0.00,,,0.00,Wunderground v.1.15,2013-03-21 17:25:00,
2013-03-21 12:30:00,29.1,12.3,29.60,ESE,111,4.0,5.0,49,0.00,,,0.00,Wunderground v.1.15,2013-03-21 17:30:00,
2013-03-21 12:35:00,29.1,13.2,29.60,North,10,1.0,6.0,51,0.00,,,0.00,Wunderground v.1.15,2013-03-21 17:35:00,
2013-03-21 12:40:00,29.7,12.8,29.59,SE,145,0.0,2.0,49,0.00,,,0.00,Wunderground v.1.15,2013-03-21 17:40:00,
2013-03-21 12:45:00,29.4,12.1,29.59,SSE,160,1.0,6.0,48,0.00,,,0.00,Wunderground v.1.15,2013-03-21 17:45:00,
2013-03-21 12:50:00,29.8,11.5,29.60,SSE,161,0.0,2.0,46,0.00,,,0.00,Wunderground v.1.15,2013-03-21 17:50:00,
2013-03-21 12:55:00,29.6,11.3,29.59,SSE,165,2.0,7.0,46,0.00,,,0.00,Wunderground v.1.15,2013-03-21 17:55:00,
2013-03-21 13:00:00,29.6,12.3,29.58,SSE,162,2.0,7.0,48,0.00,,,0.00,Wunderground v.1.15,2013-03-21 18:00:00,
2013-03-21 13:05:00,29.7,12.4,29.58,SSE,161,4.0,7.0,48,0.00,,,0.00,Wunderground v.1.15,2013-03-21 18:05:00,
2013-03-21 13:10:00,30.7,12.8,29.58,South,179,0.0,3.0,47,0.00,,,0.00,Wunderground v.1.15,2013-03-21 18:10:00,
2013-03-21 13:15:00,30.4,13.5,29.58,SSE,163,2.0,7.0,49,0.00,,,0.00,Wunderground v.1.15,2013-03-21 18:15:00,
2013-03-21 13:20:00,30.9,12.5,29.57,SE,146,2.0,6.0,46,0.00,,,0.00,Wunderground v.1.15,2013-03-21 18:20:00,
2013-03-21 13:25:00,31.8,12.8,29.57,SSE,148,4.0,6.0,45,0.00,,,0.00,Wunderground v.1.15,2013-03-21 18:25:00,
2013-03-21 13:30:00,-999.9,-99.9,29.57,SSE,149,0.0,2.0,255,0.00,,,0.00,Wunderground v.1.15,2013-03-21 18:30:00,
2013-03-21 13:35:00,31.7,13.7,29.57,SE,125,0.0,6.0,47,0.00,,,0.00,Wunderground v.1.15,2013-03-21 18:35:00,
2013-03-21 13:40:00,32.0,14.0,29.56,SSE,148,0.0,6.0,47,0.00,,,0.00,Wunderground v.1.15,2013-03-21 18:40:00,
2013-03-21 13:45:00,32.3,13.8,29.56,SSE,148,2.0,6.0,46,0.00,,,0.00,Wunderground v.1.15,2013-03-21 18:45:00,
2013-03-21 13:51:00,32.4,13.9,29.56,NE,40,0.0,3.0,46,0.00,,,0.00,Wunderground v.1.15,2013-03-21 18:51:00,
2013-03-21 13:56:00,32.0,-99.9,29.56,NNE,24,0.0,6.0,255,0.00,,,0.00,Wunderground v.1.15,2013-03-21 18:56:00,
2013-03-21 14:01:00,31.8,-99.9,29.55,NNE,22,3.0,3.0,255,0.00,,,0.00,Wunderground v.1.15,2013-03-21 19:01:00,
2013-03-21 14:06:00,31.1,13.2,29.55,NNE,33,3.0,6.0,47,0.00,,,0.00,Wunderground v.1.15,2013-03-21 19:06:00,
2013-03-21 14:12:00,31.5,13.6,29.54,North,5,4.0,6.0,47,0.00,,,0.00,Wunderground v.1.15,2013-03-21 19:12:00,
2013-03-21 14:17:00,31.7,13.3,29.54,NNE,28,7.0,7.0,46,0.00,,,0.00,Wunderground v.1.15,2013-03-21 19:17:00,
2013-03-21 14:22:00,31.8,13.8,29.54,ENE,61,0.0,3.0,47,0.00,,,0.00,Wunderground v.1.15,2013-03-21 19:22:00,
2013-03-21 14:27:00,32.0,14.5,29.53,ENE,57,0.0,4.0,48,0.00,,,0.00,Wunderground v.1.15,2013-03-21 19:27:00,
2013-03-21 14:32:00,33.1,15.0,29.53,ENE,62,0.0,2.0,47,0.00,,,0.00,Wunderground v.1.15,2013-03-21 19:32:00,
2013-03-21 14:37:00,33.2,14.1,29.53,ENE,61,0.0,2.0,45,0.00,,,0.00,Wunderground v.1.15,2013-03-21 19:37:00,
2013-03-21 14:42:00,33.2,14.1,29.53,NE,53,0.0,1.0,45,0.00,,,0.00,Wunderground v.1.15,2013-03-21 19:42:00,
2013-03-21 14:47:00,33.7,14.1,29.53,ENE,74,3.0,4.0,44,0.00,,,0.00,Wunderground v.1.15,2013-03-21 19:47:00,
2013-03-21 14:52:00,33.4,13.3,29.53,ESE,103,0.0,5.0,43,0.00,,,0.00,Wunderground v.1.15,2013-03-21 19:52:00,
2013-03-21 14:57:00,33.5,14.4,29.53,SE,130,4.0,7.0,45,0.00,,,0.00,Wunderground v.1.15,2013-03-21 19:57:00,
2013-03-21 15:02:00,33.6,14.0,29.52,SSE,155,2.0,6.0,44,0.00,,,0.00,Wunderground v.1.15,2013-03-21 20:02:00,
2013-03-21 15:07:00,33.5,13.9,29.52,East,94,0.0,8.0,44,0.00,,,0.00,Wunderground v.1.15,2013-03-21 20:07:00,
2013-03-21 15:13:00,33.8,14.2,29.52,East,94,0.0,2.0,44,0.00,,,0.00,Wunderground v.1.15,2013-03-21 20:13:00,
2013-03-21 15:18:00,34.3,14.6,29.51,SE,140,5.0,8.0,44,0.00,,,0.00,Wunderground v.1.15,2013-03-21 20:18:00,
2013-03-21 15:23:00,34.8,14.5,29.51,ESE,120,0.0,4.0,43,0.00,,,0.00,Wunderground v.1.15,2013-03-21 20:23:00,
2013-03-21 15:28:00,34.6,14.4,29.51,East,96,0.0,4.0,43,0.00,,,0.00,Wunderground v.1.15,2013-03-21 20:28:00,
2013-03-21 15:33:00,34.9,14.6,29.51,South,176,1.0,6.0,43,0.00,,,0.00,Wunderground v.1.15,2013-03-21 20:33:00,
2013-03-21 15:38:00,35.2,14.4,29.50,East,81,2.0,6.0,42,0.00,,,0.00,Wunderground v.1.15,2013-03-21 20:38:00,
2013-03-21 15:43:00,35.2,14.4,29.50,East,79,0.0,2.0,42,0.00,,,0.00,Wunderground v.1.15,2013-03-21 20:43:00,
2013-03-21 15:48:00,35.2,14.9,29.50,ENE,78,2.0,6.0,43,0.00,,,0.00,Wunderground v.1.15,2013-03-21 20:48:00,
2013-03-21 15:53:00,35.1,14.3,29.51,NE,34,0.0,6.0,42,0.00,,,0.00,Wunderground v.1.15,2013-03-21 20:53:00,
2013-03-21 15:58:00,34.8,14.5,29.51,NE,49,2.0,8.0,43,0.00,,,0.00,Wunderground v.1.15,2013-03-21 20:58:00,
2013-03-21 16:03:00,35.0,14.2,29.50,ENE,57,0.0,6.0,42,0.00,,,0.00,Wunderground v.1.15,2013-03-21 21:03:00,
2013-03-21 16:08:00,34.9,15.7,29.50,NE,36,4.0,6.0,45,0.00,,,0.00,Wunderground v.1.15,2013-03-21 21:08:00,
2013-03-21 16:13:00,35.3,15.5,29.50,NE,48,1.0,8.0,44,0.00,,,0.00,Wunderground v.1.15,2013-03-21 21:13:00,
2013-03-21 16:18:00,35.3,15.5,29.50,East,84,0.0,8.0,44,0.00,,,0.00,Wunderground v.1.15,2013-03-21 21:18:00,
2013-03-21 16:23:00,35.4,14.6,29.50,NE,40,0.0,5.0,42,0.00,,,0.00,Wunderground v.1.15,2013-03-21 21:23:00,
2013-03-21 16:28:00,35.7,14.8,29.50,East,79,2.0,7.0,42,0.00,,,0.00,Wunderground v.1.15,2013-03-21 21:28:00,
2013-03-21 16:33:00,35.0,14.7,29.50,ENE,77,0.0,3.0,43,0.00,,,0.00,Wunderground v.1.15,2013-03-21 21:33:00,
2013-03-21 16:38:00,36.2,-99.9,29.50,ENE,77,0.0,4.0,255,0.00,,,0.00,Wunderground v.1.15,2013-03-21 21:38:00,
2013-03-21 16:43:00,35.5,14.1,29.50,SE,136,0.0,4.0,41,0.00,,,0.00,Wunderground v.1.15,2013-03-21 21:43:00,
2013-03-21 16:48:00,36.4,14.3,29.50,SE,130,0.0,5.0,40,0.00,,,0.00,Wunderground v.1.15,2013-03-21 21:48:00,
2013-03-21 16:53:00,36.7,14.6,29.50,ESE,120,0.0,4.0,40,0.00,,,0.00,Wunderground v.1.15,2013-03-21 21:53:00,
2013-03-21 16:58:00,35.6,13.0,29.50,East,84,2.0,6.0,39,0.00,,,0.00,Wunderground v.1.15,2013-03-21 21:58:00,
2013-03-21 17:03:00,35.1,12.6,29.50,SE,126,4.0,7.0,39,0.00,,,0.00,Wunderground v.1.15,2013-03-21 22:03:00,
2013-03-21 17:08:00,34.7,12.2,29.50,ESE,119,0.0,7.0,39,0.00,,,0.00,Wunderground v.1.15,2013-03-21 22:08:00,
2013-03-21 17:13:00,34.6,12.7,29.50,ESE,120,0.0,5.0,40,0.00,,,0.00,Wunderground v.1.15,2013-03-21 22:13:00,
2013-03-21 17:18:00,34.6,13.3,29.50,ESE,119,0.0,5.0,41,0.00,,,0.00,Wunderground v.1.15,2013-03-21 22:18:00,
2013-03-21 17:23:00,-999.9,-99.9,29.50,ESE,119,0.0,4.0,255,0.00,,,0.00,Wunderground v.1.15,2013-03-21 22:23:00,
2013-03-21 17:28:00,34.8,13.5,29.50,ESE,119,0.0,4.0,41,0.00,,,0.00,Wunderground v.1.15,2013-03-21 22:28:00,
2013-03-21 17:33:00,34.7,13.9,29.50,ESE,119,0.0,2.0,42,0.00,,,0.00,Wunderground v.1.15,2013-03-21 22:33:00,
2013-03-21 17:38:00,34.8,14.0,29.50,ESE,115,0.0,4.0,42,0.00,,,0.00,Wunderground v.1.15,2013-03-21 22:38:00,
2013-03-21 17:43:00,35.0,14.2,29.50,SE,143,6.0,6.0,42,0.00,,,0.00,Wunderground v.1.15,2013-03-21 22:43:00,
2013-03-21 17:49:00,35.0,14.7,29.50,SE,138,2.0,7.0,43,0.00,,,0.00,Wunderground v.1.15,2013-03-21 22:49:00,
2013-03-21 17:54:00,34.9,14.1,29.50,SE,134,0.0,5.0,42,0.00,,,0.00,Wunderground v.1.15,2013-03-21 22:54:00,
2013-03-21 17:59:00,34.9,14.6,29.50,SE,132,2.0,5.0,43,0.00,,,0.00,Wunderground v.1.15,2013-03-21 22:59:00,
2013-03-21 18:04:00,34.9,14.1,29.50,ESE,123,5.0,5.0,42,0.00,,,0.00,Wunderground v.1.15,2013-03-21 23:04:00,
2013-03-21 18:09:00,34.8,14.5,29.50,ESE,117,0.0,5.0,43,0.00,,,0.00,Wunderground v.1.15,2013-03-21 23:09:00,
2013-03-21 18:14:00,34.7,13.9,29.50,ESE,117,0.0,4.0,42,0.00,,,0.00,Wunderground v.1.15,2013-03-21 23:14:00,
2013-03-21 18:19:00,34.7,13.9,29.50,ESE,117,0.0,4.0,42,0.00,,,0.00,Wunderground v.1.15,2013-03-21 23:19:00,
2013-03-21 18:24:00,34.8,14.0,29.50,ESE,117,0.0,0.0,42,0.00,,,0.00,Wunderground v.1.15,2013-03-21 23:24:00,
2013-03-21 18:29:00,34.8,14.0,29.50,ESE,117,0.0,1.0,42,0.00,,,0.00,Wunderground v.1.15,2013-03-21 23:29:00,
2013-03-21 18:34:00,34.9,15.2,29.50,South,175,5.0,7.0,44,0.00,,,0.00,Wunderground v.1.15,2013-03-21 23:34:00,
2013-03-21 18:39:00,34.6,15.4,29.50,South,182,2.0,7.0,45,0.00,,,0.00,Wunderground v.1.15,2013-03-21 23:39:00,
2013-03-21 18:44:00,34.4,15.2,29.50,South,180,3.0,5.0,45,0.00,,,0.00,Wunderground v.1.15,2013-03-21 23:44:00,
2013-03-21 18:49:00,34.1,15.5,29.50,South,180,0.0,6.0,46,0.00,,,0.00,Wunderground v.1.15,2013-03-21 23:49:00,
2013-03-21 18:54:00,33.9,15.3,29.50,South,187,0.0,6.0,46,0.00,,,0.00,Wunderground v.1.15,2013-03-21 23:54:00,
2013-03-21 18:59:00,33.8,15.2,29.50,South,186,1.0,6.0,46,0.00,,,0.00,Wunderground v.1.15,2013-03-21 23:59:00,
2013-03-21 19:04:00,33.7,15.1,29.50,South,184,1.0,6.0,46,0.00,,,0.00,Wunderground v.1.15,2013-03-22 00:04:00,
2013-03-21 19:09:00,34.1,14.9,29.50,South,184,1.0,6.0,45,0.00,,,0.00,Wunderground v.1.15,2013-03-22 00:09:00,
2013-03-21 19:14:00,34.2,14.5,29.50,South,182,1.0,4.0,44,0.00,,,0.00,Wunderground v.1.15,2013-03-22 00:14:00,
2013-03-21 19:19:00,33.4,14.8,29.50,South,178,4.0,4.0,46,0.00,,,0.00,Wunderground v.1.15,2013-03-22 00:19:00,
2013-03-21 19:24:00,33.2,14.1,29.50,South,178,1.0,5.0,45,0.00,,,0.00,Wunderground v.1.15,2013-03-22 00:24:00,
2013-03-21 19:29:00,33.0,14.4,29.50,South,178,0.0,5.0,46,0.00,,,0.00,Wunderground v.1.15,2013-03-22 00:29:00,
2013-03-21 19:34:00,32.9,14.4,29.50,South,178,0.0,1.0,46,0.00,,,0.00,Wunderground v.1.15,2013-03-22 00:34:00,
2013-03-21 19:39:00,32.9,14.4,29.50,South,178,4.0,5.0,46,0.00,,,0.00,Wunderground v.1.15,2013-03-22 00:39:00,
2013-03-21 19:44:00,32.6,14.6,29.50,South,178,0.0,1.0,47,0.00,,,0.00,Wunderground v.1.15,2013-03-22 00:44:00,
2013-03-21 19:49:00,32.5,14.5,29.50,South,178,0.0,1.0,47,0.00,,,0.00,Wunderground v.1.15,2013-03-22 00:49:00,
2013-03-21 19:54:00,32.3,14.8,29.50,South,178,0.0,0.0,48,0.00,,,0.00,Wunderground v.1.15,2013-03-22 00:54:00,
2013-03-21 19:59:00,32.3,15.3,29.50,South,178,0.0,0.0,49,0.00,,,0.00,Wunderground v.1.15,2013-03-22 00:59:00,
2013-03-21 20:04:00,31.9,-99.9,29.50,South,178,0.0,0.0,255,0.00,,,0.00,Wunderground v.1.15,2013-03-22 01:04:00,
2013-03-21 20:09:00,31.6,14.6,29.51,South,178,0.0,0.0,49,0.00,,,0.00,Wunderground v.1.15,2013-03-22 01:09:00,
2013-03-21 20:14:00,32.1,15.5,29.51,South,178,0.0,0.0,50,0.00,,,0.00,Wunderground v.1.15,2013-03-22 01:14:00,
2013-03-21 20:19:00,31.2,14.7,29.51,South,178,0.0,0.0,50,0.00,,,0.00,Wunderground v.1.15,2013-03-22 01:19:00,
2013-03-21 20:24:00,31.1,14.1,29.51,South,178,0.0,0.0,49,0.00,,,0.00,Wunderground v.1.15,2013-03-22 01:24:00,
2013-03-21 20:29:00,31.0,13.1,29.51,South,178,0.0,0.0,47,0.00,,,0.00,Wunderground v.1.15,2013-03-22 01:29:00,
2013-03-21 20:34:00,30.7,13.8,29.51,South,178,0.0,1.0,49,0.00,,,0.00,Wunderground v.1.15,2013-03-22 01:34:00,
2013-03-21 20:39:00,-999.9,-99.9,29.51,South,178,0.0,1.0,48,0.00,,,0.00,Wunderground v.1.15,2013-03-22 01:39:00,
2013-03-21 20:44:00,-999.9,-99.9,29.52,South,178,0.0,0.0,255,0.00,,,0.00,Wunderground v.1.15,2013-03-22 01:44:00,
2013-03-21 20:49:00,30.5,13.6,29.52,South,178,0.0,0.0,49,0.00,,,0.00,Wunderground v.1.15,2013-03-22 01:49:00,
2013-03-21 20:55:00,30.3,13.9,29.52,South,178,0.0,0.0,50,0.00,,,0.00,Wunderground v.1.15,2013-03-22 01:55:00,
2013-03-21 21:00:00,-999.9,-99.9,29.52,South,178,0.0,0.0,50,0.00,,,0.00,Wunderground v.1.15,2013-03-22 02:00:00,
2013-03-21 21:05:00,29.9,13.5,29.52,South,178,2.0,4.0,50,0.00,,,0.00,Wunderground v.1.15,2013-03-22 02:05:00,
2013-03-21 21:09:00,29.9,13.9,29.52,South,178,0.0,4.0,51,0.00,,,0.00,Wunderground v.1.15,2013-03-22 02:09:00,
2013-03-21 21:15:00,29.9,14.8,29.52,South,178,0.0,2.0,53,0.00,,,0.00,Wunderground v.1.15,2013-03-22 02:15:00,
2013-03-21 21:19:00,30.0,14.9,29.52,South,178,0.0,2.0,53,0.00,,,0.00,Wunderground v.1.15,2013-03-22 02:19:00,
2013-03-21 21:24:00,30.2,15.1,29.52,South,178,0.0,0.0,53,0.00,,,0.00,Wunderground v.1.15,2013-03-22 02:24:00,
2013-03-21 21:30:00,30.3,15.2,29.52,South,178,0.0,0.0,53,0.00,,,0.00,Wunderground v.1.15,2013-03-22 02:30:00,
2013-03-21 21:34:00,30.3,15.6,29.52,South,178,0.0,2.0,54,0.00,,,0.00,Wunderground v.1.15,2013-03-22 02:34:00,
2013-03-21 21:40:00,30.4,16.1,29.52,South,178,0.0,0.0,55,0.00,,,0.00,Wunderground v.1.15,2013-03-22 02:40:00,
2013-03-21 21:45:00,30.4,16.1,29.52,South,178,0.0,0.0,55,0.00,,,0.00,Wunderground v.1.15,2013-03-22 02:45:00,
2013-03-21 21:50:00,30.3,16.5,29.52,South,178,0.0,0.0,56,0.00,,,0.00,Wunderground v.1.15,2013-03-22 02:50:00,
2013-03-21 21:55:00,30.3,16.5,29.53,South,178,0.0,0.0,56,0.00,,,0.00,Wunderground v.1.15,2013-03-22 02:55:00,
2013-03-21 22:00:00,30.4,16.6,29.53,South,178,0.0,0.0,56,0.00,,,0.00,Wunderground v.1.15,2013-03-22 03:00:00,
2013-03-21 22:05:00,30.3,16.9,29.52,South,178,0.0,1.0,57,0.00,,,0.00,Wunderground v.1.15,2013-03-22 03:05:00,
2013-03-21 22:10:00,30.6,-99.9,29.53,South,178,0.0,0.0,255,0.00,,,0.00,Wunderground v.1.15,2013-03-22 03:10:00,
2013-03-21 22:15:00,30.5,17.1,29.53,South,178,0.0,1.0,57,0.00,,,0.00,Wunderground v.1.15,2013-03-22 03:15:00,
2013-03-21 22:20:00,30.1,17.1,29.53,South,178,0.0,0.0,58,0.00,,,0.00,Wunderground v.1.15,2013-03-22 03:20:00,
2013-03-21 22:25:00,29.9,17.3,29.52,South,178,0.0,0.0,59,0.00,,,0.00,Wunderground v.1.15,2013-03-22 03:25:00,
2013-03-21 22:30:00,29.8,17.2,29.52,South,178,0.0,0.0,59,0.00,,,0.00,Wunderground v.1.15,2013-03-22 03:30:00,
2013-03-21 22:35:00,29.8,17.6,29.52,South,178,0.0,0.0,60,0.00,,,0.00,Wunderground v.1.15,2013-03-22 03:35:00,
2013-03-21 22:40:00,29.5,17.3,29.53,South,178,0.0,0.0,60,0.00,,,0.00,Wunderground v.1.15,2013-03-22 03:40:00,
2013-03-21 22:45:00,29.7,17.5,29.53,South,178,0.0,0.0,60,0.00,,,0.00,Wunderground v.1.15,2013-03-22 03:45:00,
2013-03-21 22:50:00,29.2,17.4,29.53,South,178,0.0,0.0,61,0.00,,,0.00,Wunderground v.1.15,2013-03-22 03:50:00,
2013-03-21 22:55:00,29.1,17.3,29.53,South,178,0.0,0.0,61,0.00,,,0.00,Wunderground v.1.15,2013-03-22 03:55:00,
2013-03-21 23:00:00,29.0,17.2,29.53,South,178,0.0,0.0,61,0.00,,,0.00,Wunderground v.1.15,2013-03-22 04:00:00,
2013-03-21 23:01:00,28.9,17.1,29.53,South,178,0.0,0.0,61,0.00,,,0.00,Wunderground v.1.15,2013-03-22 04:01:00,
2013-03-21 23:06:00,28.8,17.0,29.52,South,178,0.0,2.0,61,0.00,,,0.00,Wunderground v.1.15,2013-03-22 04:06:00,
2013-03-21 23:11:00,28.8,17.0,29.52,South,178,0.0,0.0,61,0.00,,,0.00,Wunderground v.1.15,2013-03-22 04:11:00,
2013-03-21 23:16:00,28.7,16.9,29.53,South,178,0.0,0.0,61,0.00,,,0.00,Wunderground v.1.15,2013-03-22 04:16:00,
2013-03-21 23:22:00,28.7,16.9,29.53,South,178,0.0,0.0,61,0.00,,,0.00,Wunderground v.1.15,2013-03-22 04:22:00,
2013-03-21 23:27:00,28.6,16.8,29.52,South,178,0.0,0.0,61,0.00,,,0.00,Wunderground v.1.15,2013-03-22 04:27:00,
2013-03-21 23:32:00,28.5,16.7,29.52,South,178,0.0,1.0,61,0.00,,,0.00,Wunderground v.1.15,2013-03-22 04:32:00,
2013-03-21 23:37:00,28.7,16.6,29.52,South,178,0.0,1.0,60,0.00,,,0.00,Wunderground v.1.15,2013-03-22 04:37:00,
2013-03-21 23:42:00,28.6,16.5,29.53,South,178,0.0,0.0,60,0.00,,,0.00,Wunderground v.1.15,2013-03-22 04:42:00,
2013-03-21 23:47:00,28.4,16.7,29.53,South,178,0.0,0.0,61,0.00,,,0.00,Wunderground v.1.15,2013-03-22 04:47:00,
2013-03-21 23:52:00,28.3,16.6,29.53,South,178,0.0,0.0,61,0.00,,,0.00,Wunderground v.1.15,2013-03-22 04:52:00,
2013-03-21 23:57:00,28.5,16.7,29.53,South,178,0.0,4.0,61,0.00,,,0.00,Wunderground v.1.15,2013-03-22 04:57:00,